| time (UTC) | temp F | wind direction | speed MPH | gust MPH | rain 1hr in | rain 24hr in | rain mn in | humidity % | barometer mb |
| 20260503003048 | 66 | 224 | 0.0 | 2.0 | 0.00 | 0.00 | 0.00 | 32 | 1015.4 |
| 20260503001550 | 67 | 0 | 0.0 | 4.0 | 0.00 | 0.00 | 0.00 | 32 | 1015.5 |
| 20260503000048 | 68 | 190 | 0.0 | 3.0 | 0.00 | 0.00 | 0.00 | 30 | 1015.6 |
| 20260502234552 | 68 | 190 | 1.0 | 6.0 | 0.00 | 0.00 | 0.00 | 31 | 1015.8 |
| 20260502233047 | 67 | 0 | 0.0 | 2.0 | 0.00 | 0.00 | 0.00 | 33 | 1016.0 |
| 20260502231545 | 68 | 190 | 2.0 | 5.0 | 0.00 | 0.00 | 0.00 | 31 | 1016.1 |
| 20260502230044 | 68 | 190 | 1.0 | 10.0 | 0.00 | 0.00 | 0.00 | 33 | 1016.2 |
| 20260502224539 | 69 | 190 | 2.0 | 9.0 | 0.00 | 0.00 | 0.00 | 31 | 1016.4 |
| 20260502223042 | 69 | 224 | 2.0 | 5.0 | 0.00 | 0.00 | 0.00 | 30 | 1016.6 |
| 20260502221550 | 68 | 0 | 1.0 | 8.0 | 0.00 | 0.00 | 0.00 | 31 | 1016.9 |
| 20260502220048 | 68 | 190 | 3.0 | 6.0 | 0.00 | 0.00 | 0.00 | 33 | 1017.2 |
| 20260502214544 | 66 | 190 | 4.0 | 9.0 | 0.00 | 0.00 | 0.00 | 34 | 1017.4 |
| 20260502213058 | 68 | 190 | 1.0 | 5.0 | 0.00 | 0.00 | 0.00 | 33 | 1017.6 |
| 20260502211608 | 68 | 224 | 1.0 | 5.0 | 0.00 | 0.00 | 0.00 | 32 | 1017.6 |
| 20260502210046 | 67 | 190 | 5.0 | 10.0 | 0.00 | 0.00 | 0.00 | 33 | 1017.7 |
| 20260502204547 | 66 | 0 | 1.0 | 5.0 | 0.00 | 0.00 | 0.00 | 35 | 1017.8 |
| 20260502203053 | 67 | 190 | 4.0 | 7.0 | 0.00 | 0.00 | 0.00 | 34 | 1017.9 |
| 20260502201543 | 67 | 224 | 4.0 | 9.0 | 0.00 | 0.00 | 0.00 | 34 | 1018.1 |
| 20260502200042 | 67 | 190 | 3.0 | 7.0 | 0.00 | 0.00 | 0.00 | 35 | 1018.3 |
| 20260502194554 | 65 | 190 | 2.0 | 7.0 | 0.00 | 0.00 | 0.00 | 37 | 1018.5 |
| 20260502193050 | 65 | 190 | 3.0 | 7.0 | 0.00 | 0.00 | 0.00 | 37 | 1018.5 |
| 20260502191547 | 65 | 224 | 1.0 | 6.0 | 0.00 | 0.00 | 0.00 | 36 | 1018.5 |
| 20260502190046 | 66 | 190 | 1.0 | 3.0 | 0.00 | 0.00 | 0.00 | 36 | 1018.7 |
| 20260502184554 | 66 | 190 | 2.0 | 6.0 | 0.00 | 0.00 | 0.00 | 34 | 1018.7 |
| 20260502183057 | 66 | 190 | 2.0 | 7.0 | 0.00 | 0.00 | 0.00 | 35 | 1018.9 |
| 20260502181547 | 65 | 190 | 1.0 | 11.0 | 0.00 | 0.00 | 0.00 | 34 | 1018.9 |
| 20260502163054 | 64 | 190 | 1.0 | 11.0 | 0.00 | 0.00 | 0.00 | 38 | 1019.4 |
| 20260502161543 | 64 | 190 | 3.0 | 7.0 | 0.00 | 0.00 | 0.00 | 37 | 1019.6 |
| 20260502151600 | 59 | 44 | 5.0 | 10.0 | 0.00 | 0.00 | 0.00 | 41 | 1019.5 |
| 20260502123051 | 48 | 190 | 2.0 | 4.0 | 0.00 | 0.00 | 0.00 | 54 | 1017.7 |
| 20260502121551 | 47 | 44 | 2.0 | 5.0 | 0.00 | 0.00 | 0.00 | 54 | 1017.7 |
| 20260502114607 | 45 | 45 | 0.0 | 1.0 | 0.00 | 0.00 | 0.00 | 56 | 1017.4 |
| 20260502113050 | 45 | 0 | 0.0 | 0.0 | 0.00 | 0.00 | 0.00 | 52 | 1017.4 |
| 20260502111550 | 45 | 0 | 0.0 | 0.0 | 0.00 | 0.00 | 0.00 | 52 | 1017.0 |
| 20260502110049 | 46 | 0 | 0.0 | 1.0 | 0.00 | 0.00 | 0.00 | 50 | 1016.5 |
| 20260502104552 | 47 | 0 | 0.0 | 1.0 | 0.00 | 0.00 | 0.00 | 47 | 1016.2 |
| 20260502103048 | 46 | 0 | 0.0 | 5.0 | 0.00 | 0.00 | 0.00 | 50 | 1016.2 |
| 20260502101616 | 43 | 224 | 1.0 | 4.0 | 0.00 | 0.00 | 0.00 | 52 | 1016.1 |
| 20260502090107 | 41 | 190 | 4.0 | 5.0 | 0.00 | 0.00 | 0.00 | 50 | 1015.3 |
| 20260502070058 | 42 | 224 | 0.0 | 1.0 | 0.00 | 0.00 | 0.00 | 43 | 1015.0 |
| 20260502064550 | 42 | 0 | 0.0 | 1.0 | 0.00 | 0.00 | 0.00 | 42 | 1015.0 |
| 20260502063050 | 43 | 0 | 0.0 | 0.0 | 0.00 | 0.00 | 0.00 | 40 | 1014.9 |
| 20260502061552 | 43 | 0 | 0.0 | 0.0 | 0.00 | 0.00 | 0.00 | 39 | 1014.8 |
| 20260502060040 | 44 | 0 | 0.0 | 0.0 | 0.00 | 0.00 | 0.00 | 38 | 1014.9 |
| 20260502054542 | 45 | 190 | 0.0 | 1.0 | 0.00 | 0.00 | 0.00 | 36 | 1014.9 |
| 20260502053048 | 46 | 0 | 0.0 | 0.0 | 0.00 | 0.00 | 0.00 | 35 | 1014.8 |
| 20260502051603 | 47 | 0 | 1.0 | 3.0 | 0.00 | 0.00 | 0.00 | 33 | 1014.8 |
| 20260502050049 | 47 | 0 | 0.0 | 2.0 | 0.00 | 0.00 | 0.00 | 33 | 1014.7 |
| 20260502044549 | 48 | 0 | 0.0 | 2.0 | 0.00 | 0.00 | 0.00 | 32 | 1014.7 |
| 20260502043050 | 50 | 0 | 1.0 | 4.0 | 0.00 | 0.00 | 0.00 | 32 | 1014.5 |
| 20260502041549 | 50 | 190 | 2.0 | 3.0 | 0.00 | 0.00 | 0.00 | 32 | 1014.6 |
| 20260502040056 | 52 | 0 | 0.0 | 0.0 | 0.00 | 0.00 | 0.00 | 31 | 1014.5 |
| 20260502034547 | 54 | 0 | 0.0 | 1.0 | 0.00 | 0.00 | 0.00 | 30 | 1014.3 |
| 20260502033051 | 57 | 0 | 0.0 | 2.0 | 0.00 | 0.00 | 0.00 | 27 | 1014.1 |
| 20260502031551 | 58 | 0 | 0.0 | 2.0 | 0.00 | 0.00 | 0.00 | 25 | 1014.1 |
| 20260502030055 | 59 | 190 | 2.0 | 6.0 | 0.00 | 0.00 | 0.00 | 25 | 1013.9 |
| 20260502024545 | 64 | 224 | 0.0 | 0.0 | 0.00 | 0.00 | 0.00 | 21 | 1013.6 |
| 20260502023116 | 65 | 0 | 0.0 | 0.0 | 0.00 | 0.00 | 0.00 | 20 | 1013.6 |
| 20260502021552 | 66 | 0 | 0.0 | 1.0 | 0.00 | 0.00 | 0.00 | 19 | 1013.5 |
| 20260502014549 | 71 | 0 | 0.0 | 0.0 | 0.00 | 0.00 | 0.00 | 17 | 1013.5 |
| 20260502013101 | 73 | 0 | 0.0 | 1.0 | 0.00 | 0.00 | 0.00 | 16 | 1013.4 |
| 20260502011543 | 74 | 224 | 0.0 | 1.0 | 0.00 | 0.00 | 0.00 | 15 | 1013.6 |
| 20260502010048 | 75 | 224 | 0.0 | 2.0 | 0.00 | 0.00 | 0.00 | 15 | 1013.6 |
| 20260502004604 | 75 | 224 | 1.0 | 2.0 | 0.00 | 0.00 | 0.00 | 14 | 1013.8 |